Meteo Giornale » Osservazioni meteo Stati Uniti (USA) » Mankato
ore: 20:56 - Osservazioni Meteo Mankato
Lat. 44° 13' N Lon. 93° 55' W Alt. 311 metri s.l.m.
23 °C
Sereno
Temp. 24 Ore
20 °C
30 °C
Nord
0 Km/h
Dew point 19 °C
Umidità 78 %
Visibilità 10 Km
Il sole sorge alle ore 06:37
Il sole tramonta alle ore 19:53
| Data e Ora | Cielo e Fenomeni | T °C | DP °C | Um. % | Pres. hPa | Vis. km | Vento km/h | |
|---|---|---|---|---|---|---|---|---|
| Oggi h: 20:56 | Sereno | 23 | 19 | 78 | 1014 | 10 | N 0 | |
| Oggi h: 19:56 | Sereno | 25 | 19 | 69 | 1013 | 10 | NO 7.4 | |
| Oggi h: 18:56 | Sereno | 27 | 20 | 65 | 1013 | 10 | O/NO 11.1 | |
| Oggi h: 17:56 | Sereno | 28 | 20 | 61 | 1012 | 10 | NO 16.7 | |
| Oggi h: 16:56 | Sereno | 29 | 20 | 58 | 1012 | 10 | O/NO 13 | |
| Oggi h: 15:56 | Sereno | 30 | 21 | 58 | 1012 | 10 | O/NO 14.8 | |
| Oggi h: 14:56 | Sereno | 29 | 21 | 62 | 1012 | 10 | N/NO 14.8 | |
| Oggi h: 13:56 | Sereno | 28 | 22 | 69 | 1012 | 10 | NO 14.8 | |
| Oggi h: 12:56 | Sereno | 28 | 22 | 69 | 1012 | 10 | NO 7.4 | |
| Oggi h: 12:38 | Poco Nuvoloso | 27 | 23 | 78 | 1012 | 10 | N/NO 9.3 | |
| Oggi h: 12:10 | Molto Nuvoloso | 27 | 24 | 83 | 1012 | 10 | NO 14.8 | |
| Oggi h: 11:56 | Poco Nuvoloso | 27 | 23 | 78 | 1012 | 10 | N/NO 13 | |
| Oggi h: 10:56 | Sereno | 26 | 23 | 83 | 1011 | 10 | N 13 | |
| Oggi h: 09:56 | Sereno | 24 | 22 | 88 | 1011 | 10 | O/NO 9.3 | |
| Oggi h: 08:56 | Sereno | 23 | 22 | 94 | 1010 | 10 | O 14.8 | |
| Oggi h: 07:56 | Foschia | 22 | 22 | 100 | 1010 | 8 | S/SO 7.4 | |
| Oggi h: 07:08 | Foschia | 21 | 21 | 100 | 1009 | 6 | N 5.5 | |
| Oggi h: 06:56 | Foschia | 20 | 20 | 100 | 1009 | 2 | N 0 | |
| Oggi h: 05:56 | Foschia | 21 | 21 | 100 | 1008 | 8 | N 5.5 | |
| Oggi h: 04:56 | Sereno | 21 | 21 | 100 | 1008 | 11 | S 11.1 | |
| Oggi h: 03:56 | Sereno | 22 | 21 | 94 | 1008 | 13 | S 9.3 | |
| Oggi h: 02:56 | Sereno | 22 | 22 | 100 | 1008 | 14 | S 11.1 | |
| Oggi h: 01:56 | Sereno | 22 | 22 | 100 | 1008 | 10 | S 13 | |
| Oggi h: 00:56 | Sereno | 22 | 22 | 100 | 1008 | 10 | S/SE 14.8 | |
| Ieri h: 23:56 | Sereno | 22 | 22 | 100 | 1009 | 10 | S/SE 14.8 | |
| Ieri h: 22:56 | Sereno | 23 | 22 | 94 | 1008 | 10 | S/SE 18.5 | |
| Ieri h: 21:56 | Sereno | 23 | 22 | 94 | 1008 | 10 | S/SE 24 | |



